Regional Weather Roundup
Issued by NWS Charleston, WV

Home | Current Version | Previous Version | Graphics & Text | Print | Product List | Glossary On
Versions: 1 2 3 4 5 6 7 8 9 10 11 12 13 14 15 16 17 18 19 20 21 22 23 24 25 26 27 28 29 30 31 32 33 34 35 36 37 38 39 40 41 42 43 44 45 46 47 48 49 50
000
ASUS41 KRLX 261310
RWRRLX
West Virginia Regional Weather Roundup
National Weather Service Charleston WV
900 AM EDT FRI MAY 26 2017

Note: "fair" indicates few or no clouds below 12,000 feet with no
significant weather and/or obstructions to visibility.

WVZ003-261400-
Northern Panhandle of West Virginia

CITY           SKY/WX    TMP DP  RH WIND       PRES   REMARKS
WHEELING       CLOUDY    59  54  83 W13G20    29.81R
$$

WVZ009-261400-
Northwest West Virginia

CITY           SKY/WX    TMP DP  RH WIND       PRES   REMARKS
PARKERSBURG    PTSUNNY   62  55  77 W12       29.89R
$$

WVZ006-261400-
Western West Virginia

CITY           SKY/WX    TMP DP  RH WIND       PRES   REMARKS
HUNTINGTON     MOSUNNY   62  55  77 W7        29.94R
$$

WVZ015-261400-
West Central West Virginia

CITY           SKY/WX    TMP DP  RH WIND       PRES   REMARKS
CHARLESTON     MOSUNNY   62  54  74 SW10      29.92R
$$

WVZ022-031-261400-
North Central West Virginia

CITY           SKY/WX    TMP DP  RH WIND       PRES   REMARKS
CLARKSBURG     CLOUDY    59  54  83 W8G16     29.85R
MORGANTOWN     CLOUDY    60  56  86 SW6       29.83R
$$

WVZ025-035-042-045-261400-
Southern West Virginia

CITY           SKY/WX    TMP DP  RH WIND       PRES   REMARKS
BECKLEY        PTSUNNY   58  51  78 NW12G18   29.95R
LOGAN          CLOUDY    59  57  94 CALM      29.96R
BLUEFIELD      CLOUDY    57  51  80 W16G24    29.98R
LEWISBURG      CLOUDY    57  49  76 SW7       29.92R
$$

WVZ047-261400-
Northern Mountains of West Virginia

CITY           SKY/WX    TMP DP  RH WIND       PRES   REMARKS
ELKINS         CLOUDY    57  50  77 W10G26    29.87R
$$

WVZ052-261400-
Eastern Panhandle of West Virginia

CITY           SKY/WX    TMP DP  RH WIND       PRES   REMARKS
MARTINSBURG    CLOUDY    63  56  78 S6        29.73R
PETERSBURG     PTSUNNY   64  54  70 W13G23    29.79R
$$



USA.gov is the U.S. government's official web portal to all federal, state and local government web resources and services.